Regional Weather Roundup
Issued by NWS

Home | Current Version | Previous Version | Graphics & Text | Print | Product List | Glossary On
Versions: 1 2 3 4 5 6 7 8 9 10 11 12 13 14 15 16 17 18 19 20 21 22 23 24 25 26 27 28 29 30 31 32 33 34 35 36 37 38 39 40 41 42 43 44 45 46 47 48 49 50
422
ASUS44 KJAN 011610
RWRMS

MISSISSIPPI HOURLY WEATHER ROUNDUP
NATIONAL WEATHER SERVICE JACKSON MS
1000 AM CST SUN MAR 01 2015

NOTE: "FAIR: INDICATES FEW OR NO CLOUDS BELOW 12,000 FEET WITH NO
SIGNIFICANT WEATHER AND/OR OBSTRUCTIONS TO VISIBILITY.

MSZ001>002-007>008-010>013-018>021-025>028-034>036-011700-
NORTHWEST MISSISSIPPI

CITY           SKY/WX    TMP DP  RH WIND       PRES   REMARKS
CLARKSDALE     CLOUDY    36  36 100 E6        30.38S VSB 1/2 WCI  31
CLEVELAND      CLOUDY    37  37  99 N13       30.38R FOG     WCI  29
GREENWOOD        N/A    N/A N/A N/A MISG      30.34S
GREENVILLE     RAIN      39  37  92 NE8       30.34F FOG     WCI  33
OXFORD         CLOUDY    48  48 100 S3        30.37S FOG
TUNICA         LGT RAIN  36  34  93 N5        30.40F WCI  32
$$

MSZ003>006-009-014>017-022>024-029>033-037>039-011700-
NORTHEAST MISSISSIPPI

CITY           SKY/WX    TMP DP  RH WIND       PRES   REMARKS
COLUMBUS AFB   LGT RAIN  51  49  91 SE9       30.38F
CORINTH        DRIZZLE   50  48  93 CALM      30.37S
GOLDN TRIANGLE CLOUDY    50  46  87 SE14      30.38F FOG
STARKVILLE     CLOUDY    50  48  93 SE7       30.38F FOG
TUPELO         LGT RAIN  51  47  86 S9        30.39S
$$

MSZ040-058-011700-
CENTRAL MISSISSIPPI

CITY           SKY/WX    TMP DP  RH WIND       PRES   REMARKS
JACKSON INTL   CLOUDY    56  53  90 SE7       30.34S
JACKSON HAWKNS CLOUDY    56  52  86 SE7       30.34R
MERIDIAN KEY   CLOUDY    52  49  89 E5        30.38F
MERIDIAN NAS   CLOUDY    52  49  89 SE8       30.39F
VICKSBURG      CLOUDY    55  52  89 E7        30.32S FOG
$$

MSZ059>079-011700-
SOUTH MISSISSIPPI

CITY           SKY/WX    TMP DP  RH WIND       PRES   REMARKS
BROOKHAVEN     CLOUDY    57  55  94 SE7       30.35R
HATTIESBURG    CLOUDY    55  52  89 E7        30.37F
MCCOMB         CLOUDY    57  55  93 SE9       30.33R FOG
NATCHEZ        CLOUDY    61  55  82 SE14      30.30S
PINE BELT      CLOUDY    54  50  87 SE10      30.37R
$$

MSZ080>082-011700-
COASTAL MISSISSIPPI

CITY           SKY/WX    TMP DP  RH WIND       PRES   REMARKS
BAY ST LOUIS   CLOUDY    55  52  88 E9        30.36S FOG
BILOXI         CLOUDY    55  55 100 E6        30.36F FOG
PASCAGOULA     FOG       54  53  97 NE8       30.38R VSB 1
GULFPORT       CLOUDY    55  53  93 E10       30.36S FOG
$$



USA.gov is the U.S. government's official web portal to all federal, state and local government web resources and services.